, FL

(GMT )
Crestview

Weather History for KEGI - October, 2011

Change the Weather History Date:

Friday, October 7, 2011

  Actual Average Record
Temperature  
Mean Temperature 72 °F -  
Max Temperature 86 °F - - ()
Min Temperature 57 °F - - ()
Cooling Degree Days 6    
Growing Degree Days 22 (Base 50)    
Moisture  
Dew Point 57 °F    
Average Humidity 63    
Maximum Humidity 90    
Minimum Humidity 41    
Precipitation  
Precipitation 0.00 in - - ()
Sea Level Pressure  
Sea Level Pressure 30.19 in    
Wind  
Wind Speed 5 mph (NE)    
Max Wind Speed 10 mph    
Max Gust Speed 20 mph    
Visibility 10 miles    
Events      
Averages and records for this station are not official NWS values.
T = Trace of Precipitation, MM = Missing Value Source: NWS Daily Summary

Daily Weather History Graph

Daily Weather History Graph

Search for Another Location

Airport or City:

Trip Planner

Search our weather history database for the weather conditions in past years. The results will help you decide how hot, cold, wet, or windy it might be!

Date:

Astronomy

Oct. 07, 2011 Rise Set
Actual Time 6:43 AM CDT 6:24 PM CDT
Civil Twilight 6:19 AM CDT 6:48 PM CDT
Nautical Twilight 5:51 AM CDT 7:16 PM CDT
Astronomical Twilight 5:23 AM CDT 7:44 PM CDT
Moon 3:54 PM CDT (10/7) 2:47 AM CDT (10/7)
Length of Visible Light 12h 29m
Length of Day
11h 41m
Waxing Gibbous, 83% of the Moon is Illuminated
Oct 7
Waxing Gibbous
Oct 11
Full
Oct 19
Last Quarter
Oct 26
New
Nov 2
First Quarter

Hourly Weather History & Observations

Time (CDT) Temp. Heat Index Dew Point Humidity Pressure Visibility Wind Dir Wind Speed Gust Speed Precip Events Conditions
12:55 AM 61.7 °F - 54.7 °F 78% 30.17 in 10.0 mi NE 3.5 mph - N/A   Clear
1:55 AM 62.1 °F - 54.5 °F 76% 30.17 in 10.0 mi ENE 4.6 mph - N/A   Clear
2:55 AM 61.5 °F - 55.0 °F 79% 30.17 in 10.0 mi NE 4.6 mph - N/A   Clear
3:55 AM 60.6 °F - 55.2 °F 82% 30.17 in 10.0 mi NE 3.5 mph - N/A   Clear
4:55 AM 58.5 °F - 54.7 °F 87% 30.18 in 10.0 mi Calm Calm - N/A   Clear
5:55 AM 57.2 °F - 54.0 °F 89% 30.19 in 10.0 mi North 5.8 mph - N/A   Clear
6:55 AM 58.6 °F - 55.8 °F 90% 30.21 in 10.0 mi NE 4.6 mph - N/A   Clear
7:55 AM 63.1 °F - 57.2 °F 81% 30.23 in 10.0 mi NNE 4.6 mph - N/A   Clear
8:55 AM 70.3 °F - 56.8 °F 62% 30.24 in 10.0 mi ENE 9.2 mph - N/A   Clear
9:22 AM 71.6 °F - 59.0 °F 64% 30.23 in 10.0 mi ENE 10.4 mph - N/A   Clear
9:55 AM 74.3 °F - 59.2 °F 59% 30.25 in 10.0 mi NE 9.2 mph - N/A   Clear
10:55 AM 78.3 °F - 58.3 °F 50% 30.24 in 10.0 mi NE 8.1 mph - N/A   Clear
11:55 AM 81.1 °F 81.6 °F 59.5 °F 48% 30.23 in 10.0 mi NNE 8.1 mph - N/A   Clear
12:55 PM 82.9 °F 83.0 °F 59.7 °F 45% 30.21 in 10.0 mi NE 9.2 mph - N/A   Partly Cloudy
1:55 PM 84.6 °F 84.0 °F 58.5 °F 41% 30.18 in 10.0 mi ENE 6.9 mph - N/A   Partly Cloudy
2:55 PM 86.2 °F 85.9 °F 60.3 °F 41% 30.16 in 10.0 mi NE 9.2 mph - N/A   Scattered Clouds
3:55 PM 85.1 °F 84.8 °F 59.7 °F 42% 30.15 in 10.0 mi NE 9.2 mph 19.6 mph N/A   Partly Cloudy
4:55 PM 84.4 °F 83.8 °F 58.5 °F 41% 30.14 in 10.0 mi NE 10.4 mph - N/A   Partly Cloudy
5:55 PM 81.7 °F 81.9 °F 59.2 °F 46% 30.14 in 10.0 mi NNE 4.6 mph - N/A   Partly Cloudy
6:55 PM 75.9 °F - 58.8 °F 55% 30.15 in 10.0 mi North 4.6 mph - N/A   Partly Cloudy
7:55 PM 72.0 °F - 58.1 °F 62% 30.17 in 10.0 mi NNE 3.5 mph - N/A   Clear
8:55 PM 70.2 °F - 57.7 °F 65% 30.19 in 10.0 mi NNE 3.5 mph - N/A   Scattered Clouds
9:55 PM 69.1 °F - 56.8 °F 65% 30.19 in 10.0 mi NE 4.6 mph - N/A   Scattered Clouds
10:55 PM 68.9 °F - 55.8 °F 63% 30.20 in 10.0 mi NE 6.9 mph - N/A   Partly Cloudy
11:55 PM 68.5 °F - 57.4 °F 67% 30.20 in 10.0 mi ENE 3.5 mph - N/A   Clear